Content
SEND FEEDBACK

Daily
Averages
Monthly
Summary
Thailand

CHIANG MAI, THAILAND


Home > Asia > Thailand
Elevation: 1030 feet     Latitude: 18 47N     Longitude: 098 59E

WEATHER
 
SELECT A DAY
Number of Records: 237,764;   Date Range: 7/1/96 - 7/26/14
 
SHARE

PRINT THIS DATA

[ ← Previous Day ]
WEATHER ALMANAC - JANUARY 31, 2013
[ Next Day → ]
[ °C ]   °F
Weather ElementAverageHighLow
Temperature74.7 °F84.2 °F (4:30 pm)66.2 °F (7:00 am)
Dewpoint64.1 °F67 °F (7:00 pm)60.8 °F (5:00 pm)
Humidity70.5 %92 % (7:00 am)45 % (5:00 pm)
Barometer30.06 in30.15 in (10:00 am)30.00 in (7:00 pm)
Wind Speed3.5 mph9.2 mph (6:00 pm)
Weather ElementAverage
Visibility6.1 mi
Wind DirectionSSE (147.6 °)

Weather ElementTotal
Precipitation---
Cooling Degree Days10.2 (Base 65)
Growing Degree Days25.2 (Base 50)
Averaged from 48 records on January 31, 2013
WEATHER CONDITIONS BREAKOUT
WIND DIRECTION BREAKOUT
WEATHER BY HOUR - JANUARY 31, 2013
[ °C ]   °F
Local TimeTemperatureDewpointHumidityBarometerVisibilityWind DirectionWind SpeedGust SpeedPrecipitationEventsConditions
12:30 AM68.0 °F64.4 °F88 %30.04 in6.2 miCalmMostly Cloudy
1:00 AM68.0 °F65.0 °F89 %30.01 in4.0 miCalmMist
1:00 AM68.0 °F64.4 °F88 %30.04 in6.2 miCalmMostly Cloudy
2:00 AM68.0 °F64.4 °F88 %30.04 in6.2 miCalmMostly Cloudy
2:30 AM68.0 °F64.4 °F88 %30.06 in6.2 miCalmMostly Cloudy
4:00 AM68.0 °F64.4 °F88 %30.04 in6.2 miSSE (160°)2.3 mphMostly Cloudy
4:30 AM68.0 °F64.4 °F88 %30.04 in6.2 miSE (140°)2.3 mphMostly Cloudy
5:00 AM68.0 °F64.4 °F88 %30.06 in6.2 miNNW (340°)4.6 mphMostly Cloudy
5:30 AM68.0 °F64.4 °F88 %30.06 in6.2 miNNE (20°)3.5 mphMostly Cloudy
6:00 AM68.0 °F64.4 °F88 %30.06 in6.2 miNE (40°)3.5 mphMostly Cloudy
6:30 AM68.0 °F64.4 °F88 %30.09 in5.0 miNE (40°)2.3 mphMostly Cloudy
7:00 AM66.2 °F62.6 °F88 %30.09 in5.0 miNNE (30°)4.6 mphScattered Clouds
7:00 AM67.0 °F65.0 °F92 %30.09 in5.0 miCalmMist
7:30 AM68.0 °F62.6 °F83 %30.09 in5.6 miNNE (20°)5.8 mphScattered Clouds
8:00 AM68.0 °F64.4 °F88 %30.12 in6.2 miNE (50°)4.6 mphPartly Cloudy
8:30 AM69.8 °F64.4 °F83 %30.12 in6.2 miNE (40°)4.6 mphPartly Cloudy
9:00 AM69.8 °F64.4 °F83 %30.12 in6.2 miNorth (360°)5.8 mphPartly Cloudy
9:30 AM71.6 °F64.4 °F78 %30.12 in6.2 miNorth (10°)8.1 mphPartly Cloudy
10:00 AM73.4 °F62.6 °F69 %30.15 in6.2 miNorth (10°)5.8 mphPartly Cloudy
10:30 AM73.4 °F62.6 °F69 %30.15 in6.2 miNNE (30°)4.6 mphMostly Cloudy
11:00 AM77.0 °F62.6 °F61 %30.12 in6.2 miEast (100°)3.5 mphMostly Cloudy
11:30 AM75.2 °F62.6 °F65 %30.12 in6.2 miCalmScattered Clouds
12:00 PM75.2 °F62.6 °F65 %30.09 in6.2 miNW (320°)2.3 mphScattered Clouds
12:30 PM78.8 °F62.6 °F57 %30.09 in6.2 miNNW (340°)2.3 mphScattered Clouds
1:00 PM78.8 °F64.4 °F61 %30.06 in6.2 miWest (280°)3.5 mphPartly Cloudy
1:00 PM82.0 °F66.0 °F48 %30.03 in6.0 miSouth (180°)2.3 mphScattered Clouds
1:30 PM80.6 °F64.4 °F58 %30.06 in6.2 miSSE (160°)5.8 mphPartly Cloudy
2:00 PM80.6 °F64.4 °F58 %30.04 in6.2 miSSE (150°)5.8 mphPartly Cloudy
2:30 PM80.6 °F64.4 °F58 %30.04 in6.2 miSouth (180°)5.8 mphPartly Cloudy
3:00 PM82.4 °F62.6 °F51 %30.01 in6.2 miSSE (150°)5.8 mphPartly Cloudy
3:30 PM82.4 °F62.6 °F51 %30.01 in6.2 miSSW (200°)4.6 mphPartly Cloudy
4:00 PM82.4 °F62.6 °F51 %30.01 in6.2 miWest (270°)2.3 mphPartly Cloudy
4:30 PM84.2 °F62.6 °F48 %30.01 in6.2 miEast (90°)2.3 mphPartly Cloudy
5:00 PM84.2 °F60.8 °F45 %30.01 in6.2 miESE (120°)2.3 mphPartly Cloudy
5:30 PM82.4 °F62.6 °F51 %30.01 in6.2 miSSE (150°)2.3 mphScattered Clouds
6:00 PM82.4 °F64.4 °F54 %30.01 in6.2 miSouth (180°)9.2 mphScattered Clouds
6:30 PM80.6 °F64.4 °F58 %30.01 in6.2 miSouth (170°)5.8 mphMostly Cloudy
7:00 PM80.0 °F67.0 °F57 %30.00 in6.0 miCalmScattered Clouds
7:00 PM78.8 °F64.4 °F61 %30.04 in6.2 miSSE (160°)6.9 mphScattered Clouds
7:30 PM77.0 °F64.4 °F65 %30.04 in6.2 miSSW (210°)4.6 mphPartly Cloudy
8:00 PM77.0 °F64.4 °F65 %30.06 in6.2 miSW (230°)4.6 mphPartly Cloudy
8:30 PM77.0 °F64.4 °F65 %30.06 in6.2 miWSW (250°)3.5 mphScattered Clouds
9:00 PM77.0 °F64.4 °F65 %30.06 in6.2 miSW (220°)4.6 mphScattered Clouds
9:30 PM77.0 °F64.4 °F65 %30.09 in6.2 miSW (220°)4.6 mphScattered Clouds
10:00 PM75.2 °F66.2 °F73 %30.09 in6.2 miWest (280°)2.3 mphScattered Clouds
10:30 PM75.2 °F66.2 °F73 %30.09 in6.2 miWSW (250°)2.3 mphMostly Cloudy
11:00 PM75.2 °F66.2 °F73 %30.09 in6.2 miWSW (240°)3.5 mphMostly Cloudy
11:30 PM73.4 °F66.2 °F78 %30.09 in6.2 miWSW (250°)4.6 mphMostly Cloudy
Hourly data recorded from VTCC, located miles away from Chiang Mai, Thailand







STORIES FROM OUR PARTNERS